Regional Weather Roundup
Issued by NWS

Home | Current Version | Previous Version | Graphics & Text | Print | Product List | Glossary On
Versions: 1 2 3 4 5 6 7 8 9 10 11 12 13 14 15 16 17 18 19 20 21 22 23 24 25 26 27 28 29 30 31 32 33 34 35 36 37 38 39 40 41 42 43 44 45 46 47 48 49 50
000
ASUS43 KOAX 221402
RWRNE

WEATHER ROUNDUP FOR NEBRASKA
NATIONAL WEATHER SERVICE OMAHA NE
900 AM CDT TUE AUG 22 2017

NOTES: SATELLITE DATA IS BEING USED TO AUGMENT CLOUD COVER ABOVE
       12000 FEET.
       "FAIR" INDICATES FEW OR NO CLOUDS BELOW 12,000 FEET WITH NO
       SIGNIFICANT WEATHER AND/OR OBSTRUCTIONS TO VISIBILITY.


NEZ001>004-019>022-054>056-221500-
NEBRASKA PANHANDLE

CITY           SKY/WX    TMP DP  RH WIND       PRES   REMARKS
SCOTTSBLUFF    SUNNY     58  48  69 E8        30.30S
ALLIANCE       SUNNY     53  49  86 W3        30.31R
CHADRON        SUNNY     55  44  66 CALM      30.28R
GORDON         FAIR      58  48  70 SW3       30.29S
KIMBALL        MOSUNNY   61  59  92 S12       30.35R
SIDNEY         SUNNY     61  51  70 SE8       30.34R
$$

NEZ057>060-069>072-079>082-221500-
SOUTHWEST NEBRASKA

CITY           SKY/WX    TMP DP  RH WIND       PRES   REMARKS
NORTH PLATTE   SUNNY     61  54  77 CALM      30.27R
IMPERIAL       SUNNY     61  54  77 NE6       30.29R
LEXINGTON      SUNNY     62  55  76 NE6       30.24S
MCCOOK         SUNNY     63  56  78 NE7       30.26R
OGALLALA       SUNNY     59  53  82 CALM      30.30R
$$

NEZ005>010-023>029-035>040-094-221500-
NORTH CENTRAL NEBRASKA

CITY           SKY/WX    TMP DP  RH WIND       PRES   REMARKS
VALENTINE      SUNNY     59  48  67 W3        30.26R
AINSWORTH      SUNNY     59  54  83 N3        30.26R
BROKEN BOW     SUNNY     64  52  64 N3        30.25R
O`NEILL        SUNNY     61  55  80 NW3       30.24R
ORD            SUNNY     62  54  74 N3        30.23R
THEDFORD       SUNNY     58  51  78 CALM      30.28R
$$

NEZ041-046>049-061>064-073>077-083>087-221500-
SOUTH CENTRAL NEBRASKA

CITY           SKY/WX    TMP DP  RH WIND       PRES   REMARKS
GRAND ISLAND   SUNNY     62  58  86 NE9       30.22R
AURORA         SUNNY     63  59  87 NE7       30.21R
HASTINGS       SUNNY     64  57  78 NE7       30.23R
HEBRON         SUNNY     68  62  79 NE8       30.19R
HOLDREGE       SUNNY     62  56  80 NE7       30.24R
KEARNEY        SUNNY     63  55  75 NE9       30.24R
$$

NEZ011>018-030>034-042>045-221500-
NORTHEAST NEBRASKA

CITY           SKY/WX    TMP DP  RH WIND       PRES   REMARKS
NORFOLK        SUNNY     62  56  80 NW6       30.20R
ALBION         SUNNY     61  57  86 NW6       30.22R
BLAIR          SUNNY     64  59  83 N9        30.16R
COLUMBUS       SUNNY     64  57  78 N7        30.20R
FREMONT        SUNNY     64  59  83 N5        30.17S
TEKAMAH        SUNNY     65  57  75 N6        30.16R
WAYNE          SUNNY     61  59  91 NW5       30.19R
$$

NEZ050>053-065>068-078-088>093-221500-
SOUTHEAST NEBRASKA

CITY           SKY/WX    TMP DP  RH WIND       PRES   REMARKS
LINCOLN        SUNNY     68  61  78 N10       30.18R
OMAHA EPPLEY   MOSUNNY   68  62  81 NW8       30.15R
BEATRICE       MOSUNNY   67  64  90 N7        30.17R
FALLS CITY     CLOUDY    65  64  97 NW7       30.13R FOG
NEBRASKA CITY  CLOUDY    66  66 100 N10       30.15R FOG
$$

NEZ044-045-051>053-067-221500-
OMAHA AREA

CITY           SKY/WX    TMP DP  RH WIND       PRES   REMARKS
OMAHA EPPLEY   MOSUNNY   68  62  81 NW8       30.15R
BLAIR          SUNNY     64  59  83 N9        30.16R
FREMONT        SUNNY     64  59  83 N5        30.17S
MILLARD        SUNNY     68  61  77 NW5       30.16R
OFFUTT AFB     SUNNY     68  61  78 NW12      30.14R
WAHOO          FAIR      65  61  88 N6        30.17R
$$




USA.gov is the U.S. government's official web portal to all federal, state and local government web resources and services.